• In Colombia
  • List of Countries
  • For 7 days
  • Water Temperature
  • Weather Map
  • Weather Widgets
  • user-avatar
    Login

    Hourly Weather Algiers

    Today, 20 January, Monday

    Time Temperature Precipitation Wind Pressure Humidity
    00:00 +9°C° 0 mm 5 mps 747 mmHg 69%
    01:00 +9°C° 0 mm 5 mps 747 mmHg 70%
    02:00 +9°C° 0 mm 5 mps 747 mmHg 70%
    03:00 +10°C° 0 mm 4 mps 747 mmHg 71%
    04:00 +9°C° 0 mm 5 mps 747 mmHg 68%
    05:00 +10°C° 0 mm 6 mps 747 mmHg 66%
    06:00 +10°C° 0 mm 7 mps 748 mmHg 64%
    07:00 +10°C° 0 mm 6 mps 748 mmHg 64%
    08:00 +10°C° 0 mm 6 mps 748 mmHg 63%
    09:00 +10°C° 0 mm 6 mps 749 mmHg 63%
    10:00 +12°C° 0.2 mm 5 mps 749 mmHg 61%
    11:00 +12°C° 0.2 mm 5 mps 749 mmHg 60%
    12:00 +13°C° 0.2 mm 5 mps 749 mmHg 58%
    13:00 +13°C° 0 mm 5 mps 748 mmHg 58%
    14:00 +13°C° 0 mm 6 mps 748 mmHg 58%
    15:00 +12°C° 0 mm 7 mps 747 mmHg 58%
    16:00 +12°C° 0 mm 7 mps 747 mmHg 63%
    17:00 +11°C° 0 mm 7 mps 747 mmHg 67%
    18:00 +11°C° 0 mm 7 mps 747 mmHg 72%
    19:00 +11°C° 0 mm 7 mps 747 mmHg 70%
    20:00 +11°C° 0 mm 7 mps 747 mmHg 67%
    21:00 +11°C° 0 mm 6 mps 747 mmHg 65%
    22:00 +11°C° 0 mm 6 mps 746 mmHg 64%
    23:00 +11°C° 0 mm 6 mps 746 mmHg 63%

    Tomorrow, 21 January, Tuesday

    Time Temperature Precipitation Wind Pressure Humidity
    00:00 +12°C° 0 mm 5 mps 745 mmHg 62%
    01:00 +12°C° 0 mm 5 mps 745 mmHg 61%
    02:00 +12°C° 0 mm 5 mps 744 mmHg 61%
    03:00 +12°C° 0 mm 5 mps 744 mmHg 60%
    04:00 +10°C° 0.1 mm 7 mps 744 mmHg 60%
    05:00 +10°C° 0.1 mm 9 mps 744 mmHg 60%
    06:00 +9°C° 0.1 mm 10 mps 744 mmHg 61%
    07:00 +11°C° 0.1 mm 10 mps 744 mmHg 57%
    08:00 +11°C° 0.1 mm 10 mps 745 mmHg 54%
    09:00 +12°C° 0.1 mm 10 mps 745 mmHg 50%
    10:00 +13°C° 0 mm 9 mps 745 mmHg 46%
    11:00 +15°C° 0 mm 7 mps 746 mmHg 42%
    12:00 +16°C° 0 mm 6 mps 746 mmHg 38%
    13:00 +16°C° 0 mm 5 mps 746 mmHg 38%
    14:00 +16°C° 0 mm 5 mps 746 mmHg 39%
    15:00 +17°C° 0 mm 4 mps 746 mmHg 39%
    16:00 +15°C° 0 mm 4 mps 747 mmHg 42%
    17:00 +14°C° 0 mm 4 mps 747 mmHg 44%
    18:00 +13°C° 0 mm 4 mps 747 mmHg 47%
    19:00 +13°C° 0 mm 4 mps 748 mmHg 47%
    20:00 +13°C° 0 mm 4 mps 748 mmHg 47%
    21:00 +12°C° 0 mm 3 mps 749 mmHg 47%
    22:00 +12°C° 0 mm 3 mps 749 mmHg 47%
    23:00 +12°C° 0 mm 3 mps 749 mmHg 47%

    Day after tomorrow, 22 January, Wednesday

    Time Temperature Precipitation Wind Pressure Humidity
    00:00 +11°C° 0 mm 3 mps 749 mmHg 47%
    01:00 +11°C° 0 mm 3 mps 749 mmHg 47%
    02:00 +11°C° 0 mm 3 mps 749 mmHg 47%
    03:00 +11°C° 0 mm 3 mps 749 mmHg 47%
    04:00 +11°C° 0 mm 3 mps 749 mmHg 48%
    05:00 +11°C° 0 mm 4 mps 749 mmHg 50%
    06:00 +11°C° 0 mm 4 mps 749 mmHg 51%
    07:00 +11°C° 0 mm 4 mps 749 mmHg 51%
    08:00 +12°C° 0 mm 4 mps 749 mmHg 51%
    09:00 +13°C° 0 mm 5 mps 749 mmHg 51%
    10:00 +15°C° 0 mm 5 mps 749 mmHg 47%
    11:00 +16°C° 0 mm 5 mps 749 mmHg 44%
    12:00 +19°C° 0 mm 5 mps 749 mmHg 41%
    13:00 +19°C° 0 mm 4 mps 748 mmHg 42%
    14:00 +19°C° 0 mm 4 mps 748 mmHg 44%
    15:00 +18°C° 0 mm 4 mps 748 mmHg 45%
    16:00 +16°C° 0.3 mm 5 mps 748 mmHg 52%
    17:00 +15°C° 0.3 mm 5 mps 749 mmHg 60%
    18:00 +13°C° 0.3 mm 5 mps 749 mmHg 68%
    19:00 +13°C° 0 mm 5 mps 750 mmHg 65%
    20:00 +13°C° 0 mm 5 mps 750 mmHg 63%
    21:00 +13°C° 0 mm 5 mps 751 mmHg 60%
    22:00 +13°C° 0 mm 4 mps 751 mmHg 59%
    23:00 +12°C° 0 mm 3 mps 751 mmHg 58%

    23 January, Thursday

    Time Temperature Precipitation Wind Pressure Humidity
    00:00 +12°C° 0 mm 3 mps 751 mmHg 57%
    01:00 +12°C° 0 mm 3 mps 751 mmHg 57%
    02:00 +12°C° 0 mm 2 mps 751 mmHg 57%
    03:00 +12°C° 0 mm 2 mps 751 mmHg 56%
    04:00 +12°C° 0 mm 2 mps 751 mmHg 56%
    05:00 +12°C° 0 mm 2 mps 751 mmHg 55%
    06:00 +12°C° 0 mm 2 mps 751 mmHg 55%
    07:00 +13°C° 0 mm 2 mps 752 mmHg 53%
    08:00 +14°C° 0 mm 2 mps 752 mmHg 51%
    09:00 +15°C° 0 mm 2 mps 752 mmHg 49%
    10:00 +16°C° 0 mm 2 mps 752 mmHg 45%
    11:00 +18°C° 0 mm 1 mps 752 mmHg 42%
    12:00 +19°C° 0 mm 1 mps 752 mmHg 38%
    13:00 +19°C° 0 mm 1 mps 752 mmHg 38%
    14:00 +18°C° 0 mm 2 mps 751 mmHg 39%
    15:00 +18°C° 0 mm 2 mps 751 mmHg 39%
    16:00 +17°C° 0 mm 2 mps 751 mmHg 44%
    17:00 +16°C° 0 mm 2 mps 752 mmHg 49%
    18:00 +15°C° 0 mm 2 mps 752 mmHg 55%
    19:00 +14°C° 0 mm 2 mps 752 mmHg 53%
    20:00 +14°C° 0 mm 2 mps 752 mmHg 52%
    21:00 +14°C° 0 mm 2 mps 752 mmHg 51%
    22:00 +14°C° 0 mm 2 mps 752 mmHg 50%
    23:00 +13°C° 0 mm 2 mps 752 mmHg 50%

    24 January, Friday

    Time Temperature Precipitation Wind Pressure Humidity
    00:00 +13°C° 0 mm 2 mps 752 mmHg 49%
    01:00 +12°C° 0 mm 3 mps 752 mmHg 49%
    02:00 +12°C° 0 mm 3 mps 752 mmHg 50%
    03:00 +12°C° 0 mm 3 mps 752 mmHg 50%
    04:00 +12°C° 0 mm 3 mps 752 mmHg 50%
    05:00 +12°C° 0 mm 3 mps 752 mmHg 50%
    06:00 +12°C° 0 mm 3 mps 752 mmHg 51%
    07:00 +13°C° 0 mm 3 mps 753 mmHg 50%
    08:00 +13°C° 0 mm 3 mps 753 mmHg 49%
    09:00 +14°C° 0 mm 3 mps 753 mmHg 48%
    10:00 +17°C° 0 mm 2 mps 753 mmHg 44%
    11:00 +18°C° 0 mm 2 mps 753 mmHg 41%
    12:00 +20°C° 0 mm 1 mps 753 mmHg 37%
    13:00 +20°C° 0 mm 1 mps 753 mmHg 38%
    14:00 +20°C° 0 mm 1 mps 752 mmHg 38%
    15:00 +20°C° 0 mm 1 mps 752 mmHg 38%
    16:00 +18°C° 0 mm 2 mps 752 mmHg 42%
    17:00 +16°C° 0 mm 2 mps 752 mmHg 46%
    18:00 +14°C° 0 mm 3 mps 752 mmHg 50%
    19:00 +14°C° 0 mm 3 mps 753 mmHg 49%
    20:00 +14°C° 0 mm 3 mps 753 mmHg 48%
    21:00 +14°C° 0 mm 3 mps 753 mmHg 47%
    22:00 +13°C° 0 mm 3 mps 753 mmHg 46%
    23:00 +13°C° 0 mm 3 mps 753 mmHg 46%

    25 January, Saturday

    Time Temperature Precipitation Wind Pressure Humidity
    00:00 +13°C° 0 mm 3 mps 752 mmHg 46%
    01:00 +13°C° 0 mm 4 mps 752 mmHg 46%
    02:00 +13°C° 0 mm 4 mps 752 mmHg 46%
    03:00 +13°C° 0 mm 4 mps 751 mmHg 46%
    04:00 +13°C° 0 mm 4 mps 751 mmHg 46%
    05:00 +13°C° 0 mm 4 mps 751 mmHg 46%
    06:00 +13°C° 0 mm 4 mps 750 mmHg 46%
    07:00 +14°C° 0 mm 4 mps 750 mmHg 46%
    08:00 +14°C° 0 mm 4 mps 751 mmHg 46%
    09:00 +16°C° 0 mm 3 mps 751 mmHg 46%
    10:00 +17°C° 0 mm 4 mps 751 mmHg 44%
    11:00 +18°C° 0 mm 4 mps 750 mmHg 41%
    12:00 +19°C° 0 mm 4 mps 750 mmHg 39%
    13:00 +19°C° 0 mm 5 mps 750 mmHg 44%
    14:00 +17°C° 0 mm 5 mps 750 mmHg 48%
    15:00 +17°C° 0 mm 6 mps 750 mmHg 53%
    16:00 +16°C° 0.1 mm 6 mps 750 mmHg 57%
    17:00 +15°C° 0.1 mm 6 mps 750 mmHg 61%
    18:00 +14°C° 0.1 mm 6 mps 750 mmHg 65%
    19:00 +14°C° 0.1 mm 5 mps 750 mmHg 67%
    20:00 +13°C° 0.1 mm 5 mps 750 mmHg 69%
    21:00 +13°C° 0.1 mm 4 mps 750 mmHg 72%
    22:00 +13°C° 0.1 mm 4 mps 750 mmHg 73%
    23:00 +13°C° 0.1 mm 3 mps 750 mmHg 75%
    Show more